Weather History for Fredericksburg, VA

Change the Weather History Date:

Friday, September 7, 2012

  Actual Average (KNYG) Record (KNYG)
Temperature  
Mean Temperature 77 °F -  
Max Temperature 89 °F 78 °F 96 °F (1998)
Min Temperature 65 °F 62 °F 51 °F (1996)
Cooling Degree Days 12    
Growing Degree Days 27 (Base 50)    
Moisture  
Dew Point 68 °F    
Average Humidity 77    
Maximum Humidity 100    
Minimum Humidity 50    
Precipitation  
Precipitation 0.00 in - - ()
Sea Level Pressure  
Sea Level Pressure 29.91 in    
Wind  
Wind Speed 3 mph (SSE)    
Max Wind Speed 10 mph    
Max Gust Speed -    
Visibility 10 miles    
Events Rain    
Averages and records for this station are not official NWS values.
T = Trace of Precipitation, MM = Missing Value Source: NWS Daily Summary

Daily Weather History Graph

Daily Weather History Graph

Search for Another Location

Airport:

Trip Planner

Search our weather history database for the weather conditions in past years. The results will help you decide how hot, cold, wet, or windy it might be!

Date:

Astronomy

Sep. 07, 2012 Rise Set
Actual Time 6:44 AM EDT 7:29 PM EDT
Civil Twilight 6:18 AM EDT 7:56 PM EDT
Nautical Twilight 5:46 AM EDT 8:27 PM EDT
Astronomical Twilight 5:13 AM EDT 9:00 PM EDT
Moon 11:29 PM EDT (9/7) 1:29 PM EDT (9/7)
Length of Visible Light 13h 38m
Length of Day
12h 44m
Waning Gibbous, 58% of the Moon is Illuminated
Sep 7
Waning Gibbous
Sep 8
Last Quarter
Sep 15
New
Sep 22
First Quarter
Sep 29
Full

Hourly Weather History & Observations

Time (EDT) Temp. Heat Index Dew Point Humidity Pressure Visibility Wind Dir Wind Speed Gust Speed Precip Events Conditions
12:15 AM 69.3 °F - 68.9 °F 99% 29.94 in 10.0 mi WSW 3.5 mph - N/A   Clear
12:35 AM 69.3 °F - 68.2 °F 96% 29.94 in 10.0 mi Calm Calm - N/A   Clear
12:55 AM 68.4 °F - 67.5 °F 97% 29.93 in 10.0 mi Calm Calm - N/A   Clear
1:15 AM 68.5 °F - 68.0 °F 98% 29.93 in 10.0 mi Calm Calm - N/A   Clear
1:35 AM 69.1 °F - 68.5 °F 98% 29.93 in 10.0 mi Calm Calm - N/A   Clear
1:55 AM 68.9 °F - 68.2 °F 98% 29.92 in 10.0 mi Calm Calm - N/A   Clear
2:15 AM 68.0 °F - 67.3 °F 98% 29.92 in 10.0 mi Calm Calm - N/A   Clear
2:35 AM 67.3 °F - 67.1 °F 99% 29.91 in 10.0 mi Calm Calm - N/A   Clear
2:55 AM 66.9 °F - 66.7 °F 99% 29.91 in 10.0 mi Calm Calm - N/A   Clear
3:15 AM 67.1 °F - 67.1 °F 100% 29.91 in 7.0 mi Calm Calm - N/A   Clear
3:35 AM 66.6 °F - 66.4 °F 99% 29.91 in 10.0 mi Calm Calm - N/A   Clear
3:55 AM 66.7 °F - 66.6 °F 99% 29.91 in 7.0 mi Calm Calm - N/A   Clear
4:15 AM 66.2 °F - 66.0 °F 99% 29.90 in 10.0 mi Calm Calm - N/A   Clear
4:55 AM 66.0 °F - 65.7 °F 99% 29.91 in 7.0 mi SE 3.5 mph - N/A   Clear
5:15 AM 65.7 °F - 65.7 °F 100% 29.91 in 10.0 mi Calm Calm - N/A   Clear
5:35 AM 65.8 °F - 65.8 °F 100% 29.91 in 7.0 mi Calm Calm - N/A   Clear
5:55 AM 65.5 °F - 65.5 °F 100% 29.91 in 7.0 mi Calm Calm - N/A   Clear
6:15 AM 65.7 °F - 65.5 °F 99% 29.91 in 10.0 mi Calm Calm - N/A   Clear
6:35 AM 65.7 °F - 65.7 °F 100% 29.92 in 7.0 mi Calm Calm - N/A   Clear
6:55 AM 65.8 °F - 65.8 °F 100% 29.92 in 10.0 mi Calm Calm - N/A   Clear
7:15 AM 66.2 °F - 66.2 °F 100% 29.93 in 7.0 mi Calm Calm - N/A   Clear
7:35 AM 66.6 °F - 66.4 °F 99% 29.93 in 10.0 mi Calm Calm - N/A   Clear
7:55 AM 68.0 °F - 67.5 °F 98% 29.94 in 10.0 mi Calm Calm - N/A   Clear
8:15 AM 68.7 °F - 68.0 °F 98% 29.94 in 10.0 mi Calm Calm - N/A   Clear
8:35 AM 70.0 °F - 68.9 °F 96% 29.94 in 10.0 mi Calm Calm - N/A   Clear
8:55 AM 72.0 °F - 70.0 °F 93% 29.95 in 10.0 mi Calm Calm - N/A   Clear
9:15 AM 73.6 °F - 70.9 °F 91% 29.95 in 10.0 mi Calm Calm - N/A   Clear
9:35 AM 75.6 °F - 71.4 °F 87% 29.95 in 10.0 mi Calm Calm - N/A   Clear
9:55 AM 77.9 °F - 72.1 °F 82% 29.96 in 10.0 mi SE 5.8 mph - N/A   Clear
10:15 AM 79.7 °F - 72.0 °F 77% 29.96 in 10.0 mi Calm Calm - N/A   Clear
10:21 AM 80.6 °F 84.6 °F 71.6 °F 74% 29.96 in 10.0 mi SSW 4.6 mph - N/A   Clear
10:35 AM 80.6 °F 84.4 °F 71.4 °F 73% 29.96 in 10.0 mi South 3.5 mph - N/A   Clear
10:41 AM 80.6 °F 83.9 °F 69.8 °F 70% 29.96 in 10.0 mi South 5.8 mph - N/A   Clear
10:55 AM 82.2 °F 86.0 °F 69.8 °F 66% 29.96 in 10.0 mi SSE 5.8 mph - N/A   Clear
11:01 AM 82.4 °F 86.3 °F 69.8 °F 66% 29.96 in 10.0 mi SE 4.6 mph - N/A   Clear
11:15 AM 83.5 °F 86.9 °F 68.7 °F 61% 29.96 in 10.0 mi South 8.1 mph - N/A   Clear
11:22 AM 84.2 °F 87.3 °F 68.0 °F 58% 29.96 in 10.0 mi South 6.9 mph - N/A   Clear
11:35 AM 84.0 °F 87.6 °F 68.7 °F 60% 29.96 in 10.0 mi SE 6.9 mph - N/A   Clear
11:55 AM 84.7 °F 88.8 °F 69.6 °F 60% 29.95 in 10.0 mi SSE 5.8 mph - N/A   Clear
12:15 PM 85.3 °F 89.8 °F 69.8 °F 60% 29.95 in 10.0 mi SE 4.6 mph - N/A   Clear
12:35 PM 86.2 °F 89.7 °F 68.4 °F 55% 29.94 in 10.0 mi South 4.6 mph - N/A   Clear
12:55 PM 86.5 °F 90.3 °F 68.7 °F 55% 29.94 in 10.0 mi SSE 4.6 mph - N/A   Clear
1:15 PM 86.7 °F 90.6 °F 68.7 °F 55% 29.94 in 10.0 mi South 5.8 mph - N/A   Clear
1:35 PM 87.4 °F 91.2 °F 68.2 °F 53% 29.93 in 10.0 mi South 8.1 mph - N/A   Clear
1:55 PM 87.6 °F 91.1 °F 68.2 °F 52% 29.92 in 10.0 mi SSW 9.2 mph - N/A   Clear
2:15 PM 88.0 °F 91.0 °F 67.3 °F 50% 29.91 in 10.0 mi SSE 4.6 mph - N/A   Clear
2:35 PM 88.7 °F 92.6 °F 68.4 °F 51% 29.91 in 10.0 mi SE 6.9 mph - N/A   Clear
2:55 PM 89.2 °F 94.1 °F 69.4 °F 52% 29.90 in 10.0 mi SE 9.2 mph - N/A   Clear
3:15 PM 89.1 °F 93.7 °F 69.3 °F 52% 29.89 in 10.0 mi SE 8.1 mph - N/A   Clear
3:35 PM 89.4 °F 94.4 °F 69.4 °F 52% 29.89 in 10.0 mi SSE 9.2 mph - N/A   Clear
3:55 PM 89.2 °F 93.2 °F 68.5 °F 50% 29.89 in 10.0 mi SSE 6.9 mph - N/A   Clear
4:15 PM 88.9 °F 92.6 °F 67.8 °F 50% 29.89 in 10.0 mi South 6.9 mph - N/A   Clear
4:35 PM 88.9 °F 93.0 °F 68.7 °F 51% 29.88 in 10.0 mi SSE 10.4 mph - N/A   Clear
4:55 PM 88.9 °F 93.4 °F 69.1 °F 52% 29.88 in 10.0 mi SSE 5.8 mph - N/A   Clear
5:15 PM 88.3 °F 92.8 °F 69.3 °F 53% 29.87 in 10.0 mi South 6.9 mph - N/A   Clear
5:55 PM 87.6 °F 91.5 °F 68.7 °F 53% 29.87 in 10.0 mi SSE 6.9 mph - N/A Rain Light Rain
6:15 PM 86.4 °F 90.7 °F 69.3 °F 57% 29.87 in 10.0 mi SSE 6.9 mph - N/A   Clear
6:35 PM 85.3 °F 89.4 °F 69.4 °F 59% 29.87 in 10.0 mi SSE 4.6 mph - N/A   Clear
6:55 PM 83.8 °F 88.1 °F 70.0 °F 63% 29.87 in 10.0 mi SE 4.6 mph - N/A   Clear
7:15 PM 82.2 °F 86.2 °F 70.2 °F 67% 29.87 in 10.0 mi SSE 5.8 mph - N/A   Clear
7:35 PM 80.2 °F 83.3 °F 69.8 °F 70% 29.87 in 10.0 mi SSE 5.8 mph - N/A   Clear
7:55 PM 79.0 °F - 69.8 °F 73% 29.87 in 10.0 mi SSE 3.5 mph - N/A   Clear
8:15 PM 77.0 °F - 69.6 °F 78% 29.88 in 10.0 mi SE 3.5 mph - N/A   Clear
8:35 PM 75.6 °F - 69.8 °F 82% 29.88 in 7.0 mi SSE 5.8 mph - N/A   Clear
8:55 PM 75.7 °F - 69.1 °F 80% 29.88 in 10.0 mi SE 4.6 mph - N/A   Clear
9:15 PM 76.5 °F - 68.5 °F 76% 29.88 in 10.0 mi SSE 5.8 mph - N/A   Clear
9:35 PM 76.3 °F - 68.2 °F 76% 29.87 in 10.0 mi SE 5.8 mph - N/A   Clear
9:55 PM 75.2 °F - 68.2 °F 79% 29.86 in 10.0 mi SE 4.6 mph - N/A   Clear
10:15 PM 74.8 °F - 68.2 °F 80% 29.85 in 10.0 mi SE 6.9 mph - N/A   Clear
10:35 PM 73.6 °F - 68.2 °F 83% 29.84 in 10.0 mi SE 5.8 mph - N/A   Clear
11:55 PM 73.8 °F - 70.0 °F 88% 29.86 in 10.0 mi South 6.9 mph - N/A   Clear